Regional Weather Roundup
Issued by NWS

Home | Current Version | Previous Version | Graphics & Text | Print | Product List | Glossary On
Versions: 1 2 3 4 5 6 7 8 9 10 11 12 13 14 15 16 17 18 19 20 21 22 23 24 25 26 27 28 29 30 31 32 33 34 35 36 37 38 39 40 41 42 43 44 45 46 47 48 49 50
000
ASUS45 KSLC 272310
RWRUT

UTAH REGIONAL WEATHER ROUNDUP
NATIONAL WEATHER SERVICE SALT LAKE CITY UT
500 PM MDT FRI MAR 27 2015

UTZ001>011-023>025-280000-

NORTHERN UTAH

CITY           SKY/WX    TMP DP  RH WIND       PRES   REMARKS
BRIGHAM CITY   SUNNY     68  30  24 S5        30.19F
HILL AFB       SUNNY     67  30  25 VRB5      30.20F
LOGAN          SUNNY     68  33  27 CALM      30.18F
OGDEN          SUNNY     68  30  24 CALM      30.19F
PROVO AIRPORT  SUNNY     66  32  28 VRB6      30.19F
SALT LAKE CITY SUNNY     70  32  24 CALM      30.17F
VERNAL         MOSUNNY   69  26  20 SW6       30.16F
WENDOVER       SUNNY     66  27  22 SE5       30.18F
HEBER CITY     SUNNY     70  30  23 W10       30.20F
WEST JORDAN    SUNNY     70  36  28 CALM      30.20F

$$

UTZ012>022-026-027-280000-

SOUTHERN/CENTRAL UTAH

CITY           SKY/WX    TMP DP  RH WIND       PRES   REMARKS
BLANDING       SUNNY     71  24  17 S10       30.26F
BRYCE CANYON   SUNNY     67  25  20 NW12      30.30F
CEDAR CITY     SUNNY     73  22  14 NW6       30.19F
DELTA          SUNNY     71  24  17 CALM      30.19F
HANKSVILLE     SUNNY     75  21  13 CALM      30.15F
MILFORD        SUNNY     74  26  16 NE7       30.17F
MOAB/CYNLANDS  SUNNY     72  22  15 SW6       30.14F
PRICE          SUNNY     73  24  16 S7        30.18F
ST GEORGE      CLEAR     82  28  14 W8        30.10F
KANAB          SUNNY     77  18  10 S14       30.19F

$$

REGIONAL REPORTS     COLORADO/ARIZONA

CITY           SKY/WX    TMP DP  RH WIND       PRES   REMARKS
CRAIG, CO      SUNNY     66  30  26 W9G18     30.19F
GRAND JUNCTION SUNNY     70  25  18 VRB3      30.14F
RIFLE          SUNNY     70  23  17 VRB5      30.15F
MONTROSE       SUNNY     69  20  15 N10       30.20F
CORTEZ         SUNNY     69  22  16 W17       30.20F
PAGE, AZ       SUNNY     76  23  14 NE6       30.14F
GRAND CANYON   SUNNY     70   7   8 VRB5      30.28F
KINGMAN        SUNNY     82  19   9 W9G18     30.13F
FLAGSTAFF      SUNNY     69   5   8 SW20      30.30S

$$

REGIONAL REPORTS    NEVADA/IDAHO/WYOMING

CITY           SKY/WX    TMP DP  RH WIND       PRES   REMARKS
LAS VEGAS, NV  SUNNY     87  20   8 SE6       30.01F
ELY            SUNNY     73  21  14 VRB3      30.21F
ELKO           SUNNY     75  28  17 W12G17    30.15F
POCATELLO, ID  MOSUNNY   73  33  23 W16       30.14F
BURLEY         SUNNY     75  35  23 VRB5      30.10F
EVANSTON, WY   MOSUNNY   63  28  26 W14       30.26F
ROCK SPRINGS   PTSUNNY   64  24  21 W10G26    30.20F
KEMMERER       SUNNY     61  30  31 NW15      30.26F

$$


USA.gov is the U.S. government's official web portal to all federal, state and local government web resources and services.